Location: Mascot Post Office (historical)
(40.2645°N, 99.5462°W)
Time: 17:15:51
(UTC+00:00)

Cosmos 1842 - Pass Details

Date: 14 July 2020
Orbit: 523 x 536 km, 82.5° (Epoch: 04 August)

Event Time Altitude Azimuth Distance (km) Brightness Sun altitude
Rises 10:15:38 0° 351° (N) 2,692 7.3 -11.0°
Reaches altitude 10° 10:17:47 10° 351° (N) 1,798 6.4 -10.7°
Maximum altitude 10:21:45 83° 264° (W) 546 3.2 -10.1°
Drops below altitude 10° 10:25:40 10° 176° (S) 1,785 5.6 -9.5°
Sets 10:27:48 0° 176° (S) 2,671 6.5 -9.2°
